This is the latest recevied weather packets stored in our database for station/object KV9E. If no packets are shown the sender has not sent any weather packets the latest 10 day(s).
| Time | Temp. | Humidity | Pressure | Rain* | Wind** | Luminosity | Snow |
|---|---|---|---|---|---|---|---|
| 1787852544 | 26.67° C | 66% | 1016 hPa | 0 mm | - | 619 W/m² | - |
| 1787852232 | 26.67° C | 65% | 1016.4 hPa | 0 mm | - | 619 W/m² | - |
| 1787851927 | 26.11° C | 69% | 1016.2 hPa | 0 mm | - | 614 W/m² | - |
| 1787851626 | 26.11° C | 69% | 1016.2 hPa | 0 mm | - | 610 W/m² | - |
| 1787851321 | 25.56° C | 70% | 1016.4 hPa | 0 mm | - | 608 W/m² | - |
| 1787851016 | 26.11° C | 71% | 1016.5 hPa | 0 mm | - | 610 W/m² | - |
| 1787850713 | 26.11° C | 71% | 1016.5 hPa | 0 mm | - | 603 W/m² | - |
| 1787850407 | 25.56° C | 72% | 1016.4 hPa | 0 mm | - | 599 W/m² | - |
| 1787850103 | 25.56° C | 71% | 1016.7 hPa | 0 mm | - | 602 W/m² | - |
| 1787849803 | 25.56° C | 71% | 1016.6 hPa | 0 mm | - | 577 W/m² | - |
| 1787849503 | 25° C | 73% | 1016.6 hPa | 0 mm | - | 181 W/m² | - |
| 1787849204 | 25.56° C | 71% | 1016.6 hPa | 0 mm | - | 141 W/m² | - |
| 1787848901 | 25° C | 73% | 1016.5 hPa | 0 mm | - | 100 W/m² | - |
| 1787848596 | 25° C | 75% | 1016.6 hPa | 0 mm | - | 391 W/m² | - |
| 1787848295 | 25° C | 74% | 1016.6 hPa | 0 mm | - | 122 W/m² | - |
| 1787847991 | 24.44° C | 75% | 1016.8 hPa | 0 mm | - | 202 W/m² | - |
| 1787847690 | 24.44° C | 76% | 1016.9 hPa | 0 mm | - | 104 W/m² | - |
| 1787847385 | 24.44° C | 77% | 1016.6 hPa | 0 mm | - | 62 W/m² | - |
| 1787847081 | 23.89° C | 79% | 1016.8 hPa | 0 mm | - | 55 W/m² | - |
| 1787846777 | 23.89° C | 81% | 1017 hPa | 0 mm | - | 59 W/m² | - |
| 1787846472 | 23.89° C | 81% | 1016.8 hPa | 0 mm | - | 175 W/m² | - |
| 1787846167 | 23.33° C | 80% | 1016.8 hPa | 0 mm | - | 58 W/m² | - |
| 1787845863 | 23.33° C | 81% | 1016.9 hPa | 0 mm | - | 115 W/m² | - |
| 1787845558 | 23.33° C | 81% | 1016.9 hPa | 0 mm | - | 177 W/m² | - |
| 1787845253 | 23.33° C | 82% | 1016.8 hPa | 0 mm | - | 61 W/m² | - |
* Rain latest hour (hover to see other rain measurements)
** Current wind speed in m/s (hover to see current wind gust speed)